User: anonymous   Login
Location: Caltech
(34.1382°N, 118.1253°W)
Time: 13:36:52
(UTC-07:00)
Language:

Cosmos 2251 Rocket - Orbit

View from above orbital plane
View from above orbital plane
View from above satellite
View from above satellite

Ground track
Ground track

The orbit data is extracted from the following two-line orbital elements,

1 22676U 93036B   16275.21980802  .00000102  00000-0  45848-4 0  9991
2 22676  74.0412 295.4835 0018436  22.0854 338.1088 14.33892198218226
Epoch (UTC): 01 October 2016 05:16:31
Eccentricity: 0.0018436
inclination: 74.0412°
perigee height: 765 km
apogee height: 792 km
right ascension of ascending node: 295.4835°
argument of perigee: 22.0854°
revolutions per day: 14.33892198
mean anomaly at epoch: 338.1088°
orbit number at epoch: 21822

The dashed part of the orbit path shows where the satellite is in the earth's shadow,  

DLR